Springfield, IL

11:20 AM CST on December 05, 2019 (GMT -0600)
Capital

Weather History for KSPI - October, 2019

Change the Weather History Date:

Wednesday, October 16, 2019

  Actual Average Record
Temperature  
Mean Temperature 46 °F 55 °F  
Max Temperature 55 °F 66 °F 85 °F (1963)
Min Temperature 36 °F 44 °F 28 °F (2018)
Degree Days  
Heating Degree Days 19 11  
Month to date heating degree days 136 136  
Since 1 July heating degree days 137 217  
Cooling Degree Days 0 1  
Month to date cooling degree days 32 18  
Year to date cooling degree days 1309 1117  
Moisture  
Dew Point 35 °F    
Average Humidity 71    
Maximum Humidity 92    
Minimum Humidity 50    
Precipitation  
Precipitation 0.00 in 0.11 in 1.44 in (1993)
Month to date precipitation 0.68 1.58  
Year to date precipitation 41.23 30.13  
Snow  
Snow 0.00 in 0.00 in T in (1943)
Month to date snowfall 0.0 0.0  
Since 1 July snowfall 0.0 0.0  
Since 1 September snowfall 0.0 0.0  
Snow Depth 0.00 in    
Sea Level Pressure  
Sea Level Pressure 30.05 in    
Wind  
Wind Speed 10 mph (WNW)    
Max Wind Speed 20 mph    
Max Gust Speed 27 mph    
Visibility 10 miles    
Events      
T = Trace of Precipitation, MM = Missing Value Source: NWS Daily Summary

Daily Weather History Graph

Daily Weather History Graph

Search for Another Location

Airport or City:

Astronomy

Oct. 16, 2019 Rise Set
Actual Time 7:09 AM CDT 6:18 PM CDT
Civil Twilight 6:42 AM CDT 6:45 PM CDT
Nautical Twilight 6:11 AM CDT 7:16 PM CDT
Astronomical Twilight 5:39 AM CDT 7:47 PM CDT
Moon 8:11 PM CDT (10/16) 9:40 AM CDT (10/16)
Length of Visible Light 12h 02m
Length of Day
11h 08m
Waning Gibbous, 92% of the Moon is Illuminated
Oct 16
Waning Gibbous
Oct 21
Last Quarter
Oct 27
New
Nov 4
First Quarter
Nov 12
Full

Hourly Weather History & Observations

Time (CDT) Temp. Windchill Dew Point Humidity Pressure Visibility Wind Dir Wind Speed Gust Speed Precip Events Conditions
12:52 AM 46.9 °F - 36.0 °F 66% 29.96 in 10.0 mi WNW 13.8 mph 21.9 mph N/A   Clear
1:52 AM 45.0 °F 40.1 °F 36.0 °F 71% 29.96 in 10.0 mi WNW 9.2 mph - N/A   Clear
2:52 AM 45.0 °F 40.1 °F 36.0 °F 71% 29.97 in 10.0 mi WNW 9.2 mph - N/A   Clear
3:52 AM 43.0 °F 37.2 °F 36.0 °F 76% 29.97 in 10.0 mi WNW 10.4 mph - N/A   Clear
4:52 AM 43.0 °F 36.8 °F 36.0 °F 76% 29.99 in 10.0 mi WNW 11.5 mph - N/A   Clear
5:52 AM 42.1 °F 35.7 °F 36.0 °F 79% 30.00 in 10.0 mi WNW 11.5 mph - N/A   Clear
6:52 AM 41.0 °F 34.7 °F 36.0 °F 82% 30.01 in 10.0 mi WNW 10.4 mph - N/A   Clear
7:52 AM 42.1 °F 35.7 °F 36.0 °F 79% 30.02 in 10.0 mi WNW 11.5 mph - N/A   Clear
8:52 AM 45.0 °F 39.3 °F 37.0 °F 74% 30.04 in 10.0 mi WNW 11.5 mph 21.9 mph N/A   Mostly Cloudy
9:52 AM 48.0 °F - 37.0 °F 66% 30.05 in 10.0 mi NW 13.8 mph 20.7 mph N/A   Overcast
10:20 AM 48.0 °F - 36.0 °F 63% 30.05 in 10.0 mi NW 12.7 mph - N/A   Overcast
10:52 AM 48.9 °F - 36.0 °F 61% 30.06 in 10.0 mi NW 16.1 mph 23.0 mph N/A   Overcast
11:04 AM 48.9 °F - 36.0 °F 61% 30.06 in 10.0 mi NW 15.0 mph 21.9 mph N/A   Overcast
11:52 AM 50.0 °F - 35.1 °F 57% 30.08 in 10.0 mi NW 16.1 mph 25.3 mph N/A   Overcast
12:52 PM 51.1 °F - 35.1 °F 54% 30.08 in 10.0 mi NW 15.0 mph 25.3 mph N/A   Overcast
1:52 PM 51.1 °F - 35.1 °F 54% 30.08 in 10.0 mi NNW 17.3 mph 25.3 mph N/A   Overcast
2:52 PM 54.0 °F - 35.1 °F 49% 30.07 in 10.0 mi NW 11.5 mph 21.9 mph N/A   Mostly Cloudy
3:52 PM 50.0 °F - 33.1 °F 52% 30.08 in 10.0 mi NW 11.5 mph 21.9 mph N/A   Mostly Cloudy
4:52 PM 50.0 °F - 34.0 °F 54% 30.09 in 10.0 mi NW 11.5 mph 21.9 mph N/A   Overcast
5:52 PM 48.9 °F - 34.0 °F 56% 30.09 in 10.0 mi NW 10.4 mph 18.4 mph N/A   Overcast
6:52 PM 48.0 °F - 35.1 °F 61% 30.09 in 10.0 mi Variable 3.5 mph - N/A   Overcast
7:52 PM 48.0 °F - 35.1 °F 61% 30.11 in 10.0 mi West 5.8 mph - N/A   Overcast
8:52 PM 45.0 °F 42.6 °F 36.0 °F 71% 30.10 in 10.0 mi West 4.6 mph - N/A   Overcast
9:52 PM 39.0 °F 36.8 °F 34.0 °F 82% 30.10 in 10.0 mi West 3.5 mph - N/A   Partly Cloudy
10:52 PM 37.9 °F 34.4 °F 35.1 °F 89% 30.10 in 10.0 mi NW 4.6 mph - N/A   Clear
11:52 PM 39.9 °F 36.7 °F 35.1 °F 83% 30.09 in 10.0 mi West 4.6 mph - N/A   Clear